Location: Dannhausen
(51.8650°N, 10.1026°E)
Time: 13:42:08
(UTC+00:00)

FREGAT/IRIS - Visible Passes

Search period start: 06 August 2020 00:00
Search period end: 16 August 2020 00:00
Orbit: 320 x 326 km, 96.9° (Epoch: 06 August)

Date Brightness Start Highest point End Pass type
(mag) Time Alt. Az. Time Alt. Az. Time Alt. Az.
06 Aug 5.3 19:49:08 10° SW 19:50:44 15° W 19:52:20 10° NW visible
11 Aug 5.1 19:40:58 10° SW 19:42:54 18° W 19:44:52 10° NW visible
12 Aug 5.5 19:58:21 10° WSW 19:59:23 12° W 20:00:24 10° WNW visible
